Location: Vsetin
(49.3330°N, 18.0000°E)
Time: 12:53:52
(UTC+02:00)

ISS - Visible Passes

Search period start: 28 September 2023 00:00
Search period end: 08 October 2023 00:00
Orbit: 413 x 421 km, 51.6° (Epoch: 28 September)

Date Brightness Start Highest point End Pass type
(mag) Time Alt. Az. Time Alt. Az. Time Alt. Az.
28 Sep -3.5 20:05:39 10° WNW 20:08:58 60° SSW 20:10:02 37° SE visible
29 Sep -3.8 19:17:22 10° WNW 19:20:42 83° SSW 19:23:42 12° ESE visible
29 Sep -1.5 20:54:34 10° W 20:56:36 19° SW 20:56:36 19° SW visible
30 Sep -2.3 20:05:57 10° W 20:08:56 30° SW 20:10:18 21° S visible
01 Oct -2.8 19:17:27 10° WNW 19:20:39 43° SSW 19:23:50 10° SE visible
02 Oct -1.0 20:06:39 10° WSW 20:08:29 14° SW 20:10:19 10° S visible
03 Oct -1.5 19:17:35 10° W 19:20:11 21° SW 19:22:47 10° SSE visible
